Home   Weather   Pomona   Past weeks

Flag for USA Past Weather in Pomona, California, USA — Yesterday and Last 2 Weeks

Now
54 °F

Fog.


Feels Like: 54 °F
Forecast: 44 / 66 °F
Wind: No wind

Location: Chino Airport

Current Time: Dec 7, 2016 at 10:17:44 pm

Latest Report: Dec 7, 2016 at 8:53 pm


Visibility: 6 mi

Pressure: 30.16 "Hg

Humidity: 86%

Dew Point: 50 °F

Location of PomonaLocation

Past Weather in Pomona — Graph

°F

Pomona Temperature Yesterday

Maximum temperature yesterday: 64 °F (at 12:53 pm)
Minimum temperature yesterday: 51 °F (at 6:53 am)
Average temperature yesterday: 56 °F

High & Low Weather Summary for the Past Weeks

 TemperatureHumidityPressure
High81 °F (Nov 24, 12:53 pm)97% (Nov 23, 5:53 am)30.19 "Hg (Nov 23, 5:53 am)
Low37 °F (Nov 26, 6:53 am)9% (Nov 25, 12:53 pm)29.83 "Hg (Nov 28, 3:53 pm)
Average55 °F60%30.03 "Hg
* Reported Nov 22 8:53 pm — Dec 7 8:53 pm, Pomona, Weather by CustomWeather, © 2016

Note: Actual official high and low records may vary slightly from our data, if they occured in-between our weather recording intervals... More about our weather records

Advertising

Pomona Weather History for the Previous 24 Hours

Scroll right to see more
 ConditionsComfort  
Time TempWeatherWind HumidityBarometerVisibility
8:53 pm
Wed, Dec 7
54 °FFog.No wind86%30.16 "Hg6 mi
7:53 pm53 °FPassing clouds.No wind86%30.14 "Hg7 mi
6:53 pm53 °FPassing clouds.6 mph83%30.14 "Hg7 mi
5:53 pm56 °FClear.7 mph72%30.12 "Hg10 mi
4:53 pm58 °FPassing clouds.7 mph67%30.09 "Hg7 mi
3:53 pm63 °FScattered clouds.No wind43%30.08 "Hg10 mi
2:53 pm64 °FScattered clouds.No wind47%30.08 "Hg10 mi
1:53 pm66 °FScattered clouds.No wind47%30.07 "Hg10 mi
12:53 pm65 °FScattered clouds.3 mph49%30.07 "Hg10 mi
11:53 am62 °FScattered clouds.6 mph54%30.10 "Hg8 mi
10:53 am59 °FPartly sunny.No wind64%30.11 "Hg7 mi
9:53 am56 °FPartly sunny.No wind75%30.12 "Hg7 mi
8:53 am54 °FPartly sunny.No wind80%30.11 "Hg7 mi
7:53 am51 °FBroken clouds.No wind89%30.09 "Hg7 mi
6:53 am49 °FFog.No wind90%30.07 "Hg6 mi
6:48 am48 °FFog.No wind94%30.07 "Hg6 mi
5:53 am51 °FOvercast.No wind83%30.06 "Hg6 mi
4:53 am51 °FMostly cloudy.No wind86%30.04 "Hg7 mi
4:01 am51 °FPartly cloudy.No wind83%30.03 "Hg7 mi
2:53 am52 °FFog.No wind86%30.03 "Hg6 mi
1:53 am50 °FFog.No wind89%30.03 "Hg6 mi
12:53 am52 °FPassing clouds.3 mph83%30.02 "Hg7 mi
11:53 pm
Tue, Dec 6
53 °FOvercast.5 mph83%30.02 "Hg7 mi
10:53 pm52 °FPassing clouds.No wind86%30.03 "Hg7 mi
Weather by CustomWeather, © 2016

See weather overviewHow to use our weather pages